Location: Casteau
(50.5142°N, 4.0161°E)
Time: 06:20:06
(UTC+00:00)

Cosmos 1867 - Pass Details

Date: 18 September 2020
Orbit: 777 x 799 km, 65.0° (Epoch: 27 October)

Event Time Altitude Azimuth Distance (km) Brightness Sun altitude
Rises 18:24:25 0° 319° (NW) 3,313 7.7 -6.2°
Reaches altitude 10° 18:26:52 10° 322° (NW) 2,381 6.8 -6.6°
Maximum altitude 18:32:20 70° 46° (NE) 852 3.6 -7.5°
Drops below altitude 10° 18:37:47 10° 131° (SE) 2,367 5.5 -8.3°
Enters shadow 18:38:36 - 132° (SE) 2,673 5.8 -8.4°
